BAW31 EGLL-VHHH

Flight info

Callsign BAW31
Flight time N/A
Altitude 33000
Route DET1J DET L6 DVR UL9 KONAN UL607 KOK DCT MATUG DCT BOMBI DCT TENLO DCT DEXIT DCT BEGLA DCT DEGET DCT UDROS UM859 KARDE UL851 TBN UM11 REBLO M11 MATAL T916 LEYLA N161 GASBI/K0913F330 N161 SARIN/K0907S1010 A368 FKG W192 ESDEX W191 ATNOK/K0915S1070 W191 DNC W565 BIGUX B330 KWE W181 DUDIT A599 POU R473 SIERA SIERA7C
Aircraft A35K/H-SDE2E3GHIJ3J4J5LM1ORWXY/LB1D1

Departure

Time N/A
Airport London Heathrow Airport (EGLL)

Arrival

Time 2026-05-05 18:19
Airport Hong Kong International Airport (VHHH)
Time Latitude Longitude Altitude Speed Heading
2026-05-05 17:29 23.89285 108.16061 34934 ft 526 kts 162°
2026-05-05 17:29 23.85986 108.17747 34966 ft 525 kts 152°
2026-05-05 17:30 23.82115 108.20930 34966 ft 526 kts 137°
2026-05-05 17:30 23.79293 108.24640 34968 ft 528 kts 123°
2026-05-05 17:30 23.77564 108.28181 34965 ft 529 kts 112°
2026-05-05 17:31 23.76450 108.32008 34965 ft 529 kts 101°
2026-05-05 17:31 23.75986 108.35992 34963 ft 529 kts 90°
2026-05-05 17:31 23.76184 108.39985 34964 ft 527 kts 80°
2026-05-05 17:31 23.77031 108.43869 34964 ft 525 kts 69°
2026-05-05 17:32 23.78311 108.47596 34954 ft 525 kts 71°
2026-05-05 17:32 23.79646 108.55452 34960 ft 529 kts 88°
2026-05-05 17:33 23.79477 108.63481 34961 ft 530 kts 92°
2026-05-05 17:33 23.79000 108.71507 34957 ft 530 kts 94°
2026-05-05 17:34 23.78482 108.79483 34955 ft 530 kts 93°
2026-05-05 17:34 23.77982 108.87528 34954 ft 532 kts 93°
2026-05-05 17:35 23.77494 108.95612 34957 ft 532 kts 93°
2026-05-05 17:35 23.77008 109.03675 34952 ft 532 kts 93°
2026-05-05 17:36 23.76515 109.11736 34950 ft 532 kts 93°
2026-05-05 17:36 23.75334 109.19681 34949 ft 534 kts 101°
2026-05-05 17:37 23.73763 109.27612 34951 ft 535 kts 102°
2026-05-05 17:37 23.72131 109.35535 34949 ft 535 kts 102°
2026-05-05 17:38 23.70500 109.43472 34944 ft 535 kts 102°
2026-05-05 17:38 23.68881 109.51397 34945 ft 536 kts 102°
2026-05-05 17:39 23.67258 109.59341 34945 ft 536 kts 102°
2026-05-05 17:39 23.65640 109.67237 34952 ft 536 kts 102°
2026-05-05 17:40 23.64008 109.75177 34951 ft 536 kts 102°
2026-05-05 17:40 23.62371 109.83117 34958 ft 537 kts 102°
2026-05-05 17:41 23.60727 109.91077 34955 ft 538 kts 102°
2026-05-05 17:41 23.59080 109.99050 34961 ft 538 kts 102°
2026-05-05 17:42 23.57423 110.07011 34961 ft 538 kts 102°
2026-05-05 17:42 23.55763 110.14965 34960 ft 538 kts 102°
2026-05-05 17:43 23.54098 110.22933 34957 ft 540 kts 102°
2026-05-05 17:43 23.52427 110.30907 34955 ft 540 kts 102°
2026-05-05 17:44 23.50768 110.38835 34950 ft 540 kts 102°
2026-05-05 17:44 23.49141 110.46829 34944 ft 540 kts 102°
2026-05-05 17:45 23.47519 110.54851 34945 ft 542 kts 102°
2026-05-05 17:45 23.45886 110.62879 34946 ft 543 kts 102°
2026-05-05 17:46 23.44241 110.70918 34947 ft 543 kts 102°
2026-05-05 17:46 23.42593 110.78882 34947 ft 543 kts 103°
2026-05-05 17:47 23.40893 110.86891 34947 ft 544 kts 103°
2026-05-05 17:47 23.39184 110.94920 34947 ft 544 kts 103°
2026-05-05 17:48 23.37475 111.02964 34949 ft 544 kts 103°
2026-05-05 17:48 23.35767 111.10997 34949 ft 544 kts 103°
2026-05-05 17:49 23.34065 111.19041 34953 ft 546 kts 102°
2026-05-05 17:49 23.32432 111.27053 34951 ft 546 kts 102°
2026-05-05 17:50 23.30790 111.35143 34953 ft 547 kts 102°
2026-05-05 17:50 23.29138 111.43217 34955 ft 546 kts 102°
2026-05-05 17:51 23.27477 111.51281 34955 ft 546 kts 102°
2026-05-05 17:51 23.25802 111.59344 34958 ft 546 kts 103°
2026-05-05 17:52 23.24088 111.67403 34958 ft 546 kts 103°
2026-05-05 17:52 23.22382 111.75399 34958 ft 546 kts 103°
2026-05-05 17:53 23.20667 111.83448 34962 ft 547 kts 103°
2026-05-05 17:53 23.18982 111.91521 34962 ft 548 kts 102°
2026-05-05 17:54 23.17305 111.99609 34966 ft 549 kts 102°
2026-05-05 17:54 23.15623 112.07697 34965 ft 549 kts 103°
2026-05-05 17:55 23.13931 112.15784 34965 ft 549 kts 102°
2026-05-05 17:55 23.12231 112.23883 34964 ft 550 kts 103°
2026-05-05 17:56 23.10524 112.31992 34969 ft 550 kts 103°
2026-05-05 17:56 23.08822 112.40060 34967 ft 550 kts 103°
2026-05-05 17:57 23.07199 112.48192 34970 ft 550 kts 97°
2026-05-05 17:57 23.06451 112.56476 34966 ft 552 kts 93°
2026-05-05 17:58 23.05886 112.64797 34963 ft 552 kts 93°
2026-05-05 17:58 23.05347 112.73123 34963 ft 552 kts 93°
2026-05-05 17:59 23.04789 112.81461 34967 ft 553 kts 93°
2026-05-05 17:59 23.04220 112.89750 34963 ft 555 kts 93°
2026-05-05 18:00 23.03639 112.98117 34965 ft 556 kts 93°
2026-05-05 18:00 23.02997 113.06487 34963 ft 556 kts 97°
2026-05-05 18:00 23.02175 113.10588 34966 ft 556 kts 108°
2026-05-05 18:01 23.00731 113.14461 34964 ft 555 kts 119°
2026-05-05 18:01 22.98656 113.17979 34963 ft 551 kts 131°
2026-05-05 18:01 22.96029 113.20975 34960 ft 545 kts 143°
2026-05-05 18:01 22.92960 113.23351 34961 ft 538 kts 155°
2026-05-05 18:02 22.89585 113.25040 34952 ft 530 kts 166°
2026-05-05 18:02 22.86041 113.26019 34961 ft 520 kts 177°
2026-05-05 18:02 22.82512 113.26483 34952 ft 519 kts 176°
2026-05-05 18:02 22.78954 113.27304 34797 ft 522 kts 170°
2026-05-05 18:03 22.75447 113.28359 34564 ft 520 kts 169°
2026-05-05 18:03 22.71989 113.29475 34368 ft 514 kts 168°
2026-05-05 18:03 22.68594 113.30621 33902 ft 511 kts 167°
2026-05-05 18:03 22.65199 113.31791 33135 ft 512 kts 167°
2026-05-05 18:04 22.61799 113.32972 32387 ft 514 kts 166°
2026-05-05 18:04 22.58387 113.34162 31611 ft 515 kts 166°
2026-05-05 18:04 22.54972 113.35349 30866 ft 517 kts 166°
2026-05-05 18:04 22.51551 113.36534 30098 ft 520 kts 165°
2026-05-05 18:05 22.48138 113.37713 29227 ft 522 kts 165°
2026-05-05 18:05 22.44625 113.38926 28370 ft 524 kts 165°
2026-05-05 18:05 22.41205 113.40108 27799 ft 520 kts 165°
2026-05-05 18:05 22.37772 113.41294 27244 ft 515 kts 165°
2026-05-05 18:06 22.34368 113.42468 26674 ft 511 kts 165°
2026-05-05 18:06 22.32063 113.43263 26292 ft 509 kts 165°
2026-05-05 18:06 22.27612 113.44796 25558 ft 505 kts 165°
2026-05-05 18:06 22.24274 113.45945 25017 ft 500 kts 165°
2026-05-05 18:07 22.20970 113.47085 24476 ft 497 kts 165°
2026-05-05 18:07 22.17707 113.48274 23924 ft 494 kts 164°
2026-05-05 18:07 22.14467 113.49482 23346 ft 491 kts 164°
2026-05-05 18:07 22.11246 113.50682 22759 ft 485 kts 164°
2026-05-05 18:08 22.08074 113.51858 22228 ft 479 kts 164°
2026-05-05 18:08 22.04938 113.53019 21683 ft 474 kts 164°
2026-05-05 18:08 22.01869 113.54151 21096 ft 471 kts 164°
2026-05-05 18:08 21.98776 113.55291 20433 ft 469 kts 164°
2026-05-05 18:09 21.95691 113.56426 19697 ft 468 kts 164°
2026-05-05 18:09 21.92680 113.57738 18972 ft 464 kts 153°
2026-05-05 18:09 21.90121 113.59779 18288 ft 454 kts 136°
2026-05-05 18:09 21.88250 113.62447 17509 ft 443 kts 119°
2026-05-05 18:10 21.87197 113.65523 16741 ft 433 kts 101°
2026-05-05 18:10 21.87040 113.68706 15984 ft 422 kts 83°
2026-05-05 18:10 21.87765 113.71707 15252 ft 410 kts 65°
2026-05-05 18:10 21.89273 113.74247 14542 ft 398 kts 46°
2026-05-05 18:11 21.91313 113.76192 13834 ft 386 kts 30°
2026-05-05 18:11 21.93689 113.77347 13086 ft 373 kts 12°
2026-05-05 18:11 21.96211 113.77921 12307 ft 362 kts
2026-05-05 18:11 21.98644 113.77968 11528 ft 349 kts 350°
2026-05-05 18:12 22.01003 113.77543 10759 ft 340 kts 345°
2026-05-05 18:12 22.03296 113.76998 9992 ft 333 kts 344°
2026-05-05 18:12 22.05536 113.76434 9172 ft 327 kts 344°
2026-05-05 18:12 22.07738 113.75866 8336 ft 322 kts 343°
2026-05-05 18:13 22.09901 113.75300 7550 ft 317 kts 344°
2026-05-05 18:13 22.12029 113.74742 6816 ft 312 kts 344°
2026-05-05 18:13 22.14119 113.74192 6093 ft 307 kts 344°
2026-05-05 18:13 22.16151 113.73653 5370 ft 302 kts 344°
2026-05-05 18:14 22.18179 113.73112 4650 ft 298 kts 345°
2026-05-05 18:14 22.20184 113.72581 3952 ft 293 kts 347°
2026-05-05 18:14 22.22168 113.72627 3334 ft 281 kts 20°
2026-05-05 18:14 22.23829 113.73627 2798 ft 269 kts 38°
2026-05-05 18:15 22.25302 113.74800 2391 ft 256 kts 38°
2026-05-05 18:15 22.26580 113.75995 2109 ft 228 kts 52°
2026-05-05 18:15 22.27265 113.77374 1850 ft 199 kts 76°
2026-05-05 18:15 22.27596 113.78749 1729 ft 179 kts 77°
2026-05-05 18:16 22.27945 113.79967 1653 ft 161 kts 72°
2026-05-05 18:16 22.28311 113.81039 1609 ft 145 kts 72°
2026-05-05 18:16 22.28624 113.82065 1546 ft 146 kts 74°
2026-05-05 18:16 22.28943 113.83131 1345 ft 150 kts 73°
2026-05-05 18:17 22.29283 113.84192 1153 ft 149 kts 71°
2026-05-05 18:17 22.29644 113.85236 949 ft 148 kts 71°
2026-05-05 18:17 22.29963 113.86280 734 ft 145 kts 73°
2026-05-05 18:17 22.30296 113.87309 571 ft 145 kts 72°
2026-05-05 18:18 22.30519 113.87990 432 ft 145 kts 72°
2026-05-05 18:18 22.30850 113.89028 252 ft 146 kts 73°
2026-05-05 18:18 22.31174 113.90047 57 ft 141 kts 73°
2026-05-05 18:18 22.31540 113.91193 38 ft 85 kts 71°
2026-05-05 18:19 22.31641 113.91500 38 ft 44 kts 70°
2026-05-05 18:19 22.31721 113.91745 39 ft 33 kts 71°
2026-05-05 18:19 22.31784 113.91963 39 ft 28 kts 81°
2026-05-05 18:19 22.31788 113.92127 39 ft 18 kts 95°
2026-05-05 18:20 22.31767 113.92258 38 ft 19 kts 102°
2026-05-05 18:20 22.31742 113.92378 38 ft 14 kts 111°
2026-05-05 18:20 22.31665 113.92441 38 ft 15 kts 160°
2026-05-05 18:20 22.31597 113.92524 38 ft 16 kts 117°
2026-05-05 18:21 22.31547 113.92635 38 ft 17 kts 116°
2026-05-05 18:21 22.31500 113.92744 38 ft 11 kts 114°
2026-05-05 18:21 22.31498 113.92826 38 ft 12 kts 74°
2026-05-05 18:21 22.31525 113.92913 38 ft 7 kts 71°
2026-05-05 18:22 22.31530 113.92957 38 ft 6 kts 99°
2026-05-05 18:22 22.31501 113.92986 38 ft 6 kts 155°
2026-05-05 18:22 22.31459 113.93002 38 ft 5 kts 161°
2026-05-05 18:22 22.31454 113.93004 38 ft 0 kts 160°